Flag for Spain Weather past 2 weeks in Alicante, Spain

Now
61 °F

Passing clouds.


Feels Like: 61 °F
Forecast: 47 / 57 °F
Wind: 29 mph from Northwest

Location: Alicante / El Altet

Current Time: Jan 31, 2015 at 4:25:26 PM

Latest Report: Jan 31, 2015 at 4:00 PM


Visibility: N/A

Pressure: 29.42 "Hg

Humidity: 31%

Dew point: 30 °F

Location of AlicanteLocation

Historic Weather in Alicante — Graph

°F

Alicante temperature yesterday

Maximum temperature yesterday: 73 °F (at 1:30 PM)
Minimum temperature yesterday: 59 °F (at 4:00 AM)
Average temperature yesterday: 67 °F

Past Weeks' High & Low Weather Summary

 TemperatureHumidityPressure
High73 °F (Jan 30, 1:30 PM)100% (Jan 19, 12:30 AM)30.33 "Hg (Jan 19, 12:30 AM)
Low34 °F (Jan 18, 5:00 AM)14% (Jan 25, 2:00 PM)29.24 "Hg (Jan 31, 5:00 AM)
Average52 °F53%29.97 "Hg
* Reported Jan 16 3:00 PM — Jan 31 3:30 PM, Alicante, Weather by CustomWeather, © 2014

Note: Actual official high and low records may vary slightly from our data, if they occured in-between our weather recording intervals... More about our weather records

Advertising

Alicante weather history for previous 24 hours

 ConditionsComfort  
Time TempWeatherWind HumidityBarometerVisibility
3:30 PM
Jan 31
61 °FPassing clouds.36 mph34%29.39 "HgN/A
3:00 PM61 °FPassing clouds.33 mph31%29.42 "HgN/A
2:30 PM61 °FPassing clouds.39 mph34%29.39 "HgN/A
2:00 PM61 °FPassing clouds.32 mph36%29.39 "HgN/A
1:30 PM63 °FPassing clouds.30 mph39%29.39 "HgN/A
1:00 PM61 °FPassing clouds.30 mph39%29.39 "HgN/A
12:30 PM61 °FPassing clouds.24 mph45%29.42 "HgN/A
12:00 PM61 °FPassing clouds.25 mph48%29.42 "HgN/A
11:30 AM57 °FScattered clouds.16 mph59%29.42 "HgN/A
11:00 AM55 °FScattered clouds.24 mph63%29.36 "HgN/A
10:30 AM54 °FBroken clouds.25 mph67%29.39 "HgN/A
10:00 AM50 °FRain. Mostly cloudy.23 mph82%29.39 "Hg3 mi
9:30 AM52 °FLight rain. Broken clouds.25 mph82%29.36 "Hg6 mi
9:00 AM52 °FRain. Partly sunny.23 mph88%29.36 "Hg3 mi
8:47 AM55 °FRain. Scattered clouds.32 mph72%29.33 "HgN/A
8:30 AM66 °FPassing clouds.22 mph49%29.27 "HgN/A
8:00 AM66 °FPassing clouds.23 mph49%29.27 "HgN/A
7:30 AM66 °FClear.25 mph49%29.24 "Hg10 mi
7:00 AM66 °FClear.16 mph49%29.24 "Hg10 mi
6:30 AM66 °FClear.20 mph49%29.24 "Hg10 mi
6:00 AM68 °FPassing clouds.23 mph46%29.24 "HgN/A
5:30 AM68 °FPassing clouds.16 mph43%29.24 "HgN/A
5:00 AM66 °FPassing clouds.13 mph46%29.24 "HgN/A
4:00 AM68 °FPassing clouds.17 mph43%29.27 "HgN/A
3:30 AM70 °FPassing clouds.21 mph40%29.27 "HgN/A
3:00 AM70 °FPassing clouds.20 mph43%29.27 "HgN/A
2:30 AM70 °FPassing clouds.22 mph40%29.30 "HgN/A
2:00 AM70 °FPassing clouds.20 mph40%29.30 "HgN/A
1:30 AM70 °FPassing clouds.24 mph43%29.30 "HgN/A
1:00 AM70 °FPassing clouds.26 mph40%29.30 "HgN/A
12:30 AM70 °FPassing clouds.26 mph43%29.30 "HgN/A
12:00 AM70 °FPassing clouds.25 mph43%29.33 "HgN/A
11:30 PM
Jan 30
70 °FPassing clouds.21 mph43%29.33 "HgN/A
11:00 PM70 °FPassing clouds.24 mph43%29.36 "HgN/A
10:30 PM70 °FPassing clouds.23 mph43%29.36 "HgN/A
10:00 PM70 °FPassing clouds.18 mph43%29.39 "HgN/A
9:30 PM70 °FPassing clouds.17 mph43%29.39 "HgN/A
9:00 PM70 °FPassing clouds.16 mph43%29.39 "HgN/A
8:30 PM70 °FPassing clouds.17 mph43%29.39 "HgN/A
8:00 PM70 °FPassing clouds.20 mph43%29.42 "HgN/A
7:30 PM70 °FPassing clouds.16 mph40%29.42 "HgN/A
7:00 PM70 °FPassing clouds.20 mph40%29.42 "HgN/A
6:30 PM70 °FPassing clouds.16 mph40%29.42 "HgN/A
6:00 PM72 °FPassing clouds.17 mph36%29.42 "HgN/A
5:30 PM72 °FPassing clouds.23 mph36%29.42 "HgN/A
5:00 PM72 °FPassing clouds.26 mph36%29.42 "HgN/A
4:30 PM73 °FPassing clouds.29 mph33%29.42 "HgN/A
4:00 PM73 °FPassing clouds.24 mph33%29.45 "HgN/A
Weather by CustomWeather, © 2014

See weather overviewHow to use our weather pages